TIME,DELAY(SENSOR),PRES,T(CTD),SAL,OXYGEN,RAWTEMP,T(OPTODE),TCPHASE,FLUOR,BETA(BETA700),BETA(BETA412),BETA(BETA440),CDOM,C(CSC),ED(ED411.90),ED(ED443.80),ED(ED489.40),ED(ED554.70),LU(LU412.20),LU(LU443.80),LU(LU489.40),LU(LU555.00),COMP,TILTX,TILTX(TILTY),CHECK
1341589323,5804,497.8699951171875000,16.2607002258300780,36.2304000854492200,218.2117004394531200,226.4532012939453000,16.2772903442382800,33.1384506225585940,50,107,100,80,69,15411,2147474697,2147772598,2147563017,2147803117,2147314194,2147469312,2147719122,2148245138,1643,7,13,5581
1341589462,5804,485.9200134277344000,16.4475002288818360,36.2657012939453100,220.8152008056640600,220.8446960449218800,16.4478092193603500,32.9218788146972660,50,108,102,80,68,15412,2147475200,2147775177,2147564141,2147798482,2147313920,2147475739,2147718162,2148235611,1703,7,13,27207
1341589579,5803,475.5899963378906000,16.6040000915527340,36.2962989807128900,222.4064941406250000,215.7124938964843800,16.6038608551025400,32.7665100097656250,50,110,101,80,68,15409,2147475904,2147773549,2147562633,2147797019,2147311378,2147472256,2147717650,2148244032,2234,7,13,34032
1341589706,5801,464.3200073242187500,16.8001995086669920,36.3345985412597660,224.5814056396484400,209.2203979492187500,16.8012695312500000,32.5635108947753900,50,106,100,80,67,15413,2147478134,2147770925,2147561782,2147798153,2147315117,2147475876,2147717385,2148245385,2876,7,13,50225
1341589833,5801,452.7500000000000000,16.9466991424560550,36.3642005920410160,226.2449951171875000,204.5979003906250000,16.9418392181396500,32.4146499633789060,50,105,99,79,68,15415,2147480054,2147771236,2147557924,2147794276,2147316324,2147474075,2147717650,2148244790,3298,7,13,29599
1341589950,5803,442.0100097656250000,17.0105991363525400,36.3781013488769500,227.7895965576172000,202.3016052246093800,17.0116806030273440,32.3044013977050800,50,105,99,80,67,15418,2147482194,2147762496,2147562971,2147794075,2147313664,2147476278,2147714203,2148243913,3590,7,13,30531
1341590065,5803,431.3900146484375000,17.0611000061035160,36.3830986022949200,226.7460021972656200,200.8083953857422000,17.0571002960205080,32.3366317749023440,50,107,101,80,67,15416,2147477440,2147770605,2147561938,2147797467,2147313133,2147477833,2147715629,2148245321,284,7,13,18816
1341590194,5805,419.6700134277344000,17.1278991699218750,36.3950996398925800,226.1340026855468800,198.5944976806640600,17.1244392395019530,32.3371810913085940,50,106,99,79,69,15417,2147483638,2147770678,2147561097,2147795949,2147313892,2147473234,2147716041,2148248950,1125,7,13,37452
1341590321,5804,408.4299926757812500,17.2502002716064450,36.4194984436035160,227.6540069580078000,194.5966033935547000,17.2460498809814450,32.2051010131835940,50,105,100,79,68,15419,2147483465,2147769901,2147561654,2147793883,2147315556,2147476900,2147714285,2148241033,779,7,13,55285
1341590448,5804,397.6199951171875000,17.3335990905761720,36.4370002746582000,229.6811981201172000,191.7881011962890600,17.3314895629882800,32.0652008056640600,50,106,100,79,67,15416,2147485138,2147769545,2147563410,2147798875,2147313828,2147477961,2147711588,2148243062,182,7,13,996
1341590589,5804,386.3399963378906000,17.4267997741699220,36.4550018310546900,230.9521026611328000,188.6309967041015600,17.4275398254394530,31.9591693878173830,50,106,98,79,68,15417,2147484470,2147770971,2147562770,2147795145,2147314468,2147477357,2147711963,2148242688,254,7,13,51733
1341590728,5803,375.5199890136719000,17.4864006042480470,36.4677009582519500,233.3323974609375000,186.7014007568359400,17.4862499237060550,31.8161106109619140,50,108,100,79,66,15415,2147487268,2147771657,2147562706,2147793042,2147311168,2147474486,2147714660,2148242953,187,7,13,24904
1341590875,5803,363.0100097656250000,17.5793991088867200,36.4864997863769500,235.0453033447265600,183.7055053710937500,17.5774192810058600,31.6919307708740230,50,108,99,80,67,15410,2147483913,2147770870,2147562614,2147792274,2147313078,2147477430,2147714093,2148243986,284,7,13,39418
1341590990,5804,351.6600036621094000,17.6429996490478500,36.4976997375488300,235.9304046630859400,181.5292968750000000,17.6436500549316400,31.6198692321777340,49,109,100,79,68,15411,2147484187,2147771730,2147565586,2147791259,2147308205,2147474816,2147713755,2148241088,192,7,13,38185
1341591093,5803,341.5499877929687500,17.6886997222900400,36.5017013549804700,234.4132995605468800,180.0899047851562500,17.6874599456787100,31.6738090515136720,49,109,100,80,67,15406,2147483986,2147769819,2147568658,2147791003,2147315364,2147477302,2147717312,2148239561,829,8,12,37394
1341591198,5802,331.1799926757812500,17.7588005065917970,36.5130996704101560,235.2736968994140600,177.7357940673828000,17.7591094970703120,31.6002998352050780,50,111,99,79,67,15405,2147483355,2147768219,2147571108,2147792667,2147302107,2147480000,2147717604,2148241682,1237,7,12,35156
1341591313,5803,319.5700073242187500,17.8603000640869140,36.5317993164062500,236.6369934082031200,174.2855072021484400,17.8641490936279300,31.4881706237792970,50,111,100,80,66,15405,2147484946,2147772498,2147577883,2147792649,2147311030,2147478811,2147718628,2148241106,1081,7,12,37657
1341591416,5800,308.9800109863281000,17.9067993164062500,36.5359001159668000,236.4548034667968800,172.9355926513672000,17.9052391052246100,31.4789390563964840,50,111,101,80,65,15404,2147481728,2147770084,2147578998,2147791341,2147305700,2147475337,2147719606,2148240109,1169,7,12,21750
1341591533,5803,298.0799865722656000,17.9529991149902340,36.5371017456054700,235.0904998779297000,171.4602966308593800,17.9501590728759770,31.5244693756103500,50,111,99,81,67,15405,2147486345,2147771785,2147588406,2147793636,2147305225,2147478372,2147725988,2148238089,910,7,13,26954
1341591660,5804,287.7699890136719000,18.0189990997314450,36.5466995239257800,234.1334075927734400,169.2469940185547000,18.0175590515136720,31.5405998229980470,50,112,101,81,67,15400,2147483556,2147776512,2147592384,2147794486,2147303030,2147484900,2147731794,2148242084,450,7,13,43190
1341591801,5804,276.1400146484375000,18.1061000823974600,36.5606994628906250,233.9461059570312500,165.8710021972656200,18.1203708648681640,31.5043201446533200,50,114,101,80,67,15400,2147488365,2147780635,2147608064,2147791332,2147315428,2147486866,2147739986,2148241051,719,7,13,3716
1341591928,5804,265.8200073242187500,18.1947994232177730,36.5681991577148440,232.5773010253906200,163.4169006347656200,18.1951198577880860,31.5375900268554700,50,113,100,82,68,15402,2147486893,2147787693,2147624109,2147795273,2147309257,2147488731,2147749833,2148243172,1375,7,13,10309
1341592067,5803,254.7899932861328000,18.2924003601074220,36.5826988220214840,232.6584014892578000,160.3511047363281200,18.2885208129882800,31.4923992156982420,50,111,101,79,67,15402,2147485284,2147795017,2147651995,2147792914,2147305563,2147495369,2147766418,2148241289,2109,7,13,52657
1341592208,5803,243.9900054931640600,18.3621997833251950,36.5910987854003900,232.3968048095703000,158.0140991210937500,18.3597297668457030,31.4739894866943360,50,111,99,79,67,15403,2147488100,2147803099,2147687625,2147793673,2147307328,2147505078,2147787328,2148246326,2978,7,13,54841
1341592359,5804,233.0200042724609400,18.4314002990722660,36.5954017639160160,231.5959014892578000,155.8672027587890600,18.4251499176025400,31.4839591979980470,50,110,101,80,67,15405,2147490642,2147818852,2147721252,2147791716,2147308690,2147515675,2147804406,2148243419,3487,7,13,16900
1341592502,5802,221.2599945068359400,18.5000000000000000,36.5928993225097660,231.6813964843750000,153.5372009277343800,18.4961605072021500,31.4486598968505860,50,110,101,81,66,15401,2147495003,2147839469,2147764352,2147788854,2147312054,2147524352,2147832694,2148245385,3380,7,12,21105
1341592617,5802,210.5599975585937500,18.5639991760253900,36.5900001525878900,231.7911071777343800,151.2024993896484400,18.5673294067382800,31.4120903015136720,50,115,98,80,67,15397,2147497225,2147853275,2147806409,2147791936,2147308489,2147531693,2147850102,2148246153,3522,7,13,24893
1341592746,5804,198.9700012207031200,18.6692008972167970,36.5752983093261700,236.2821044921875000,147.8164062500000000,18.6705608367919920,31.1508007049560550,50,113,100,81,66,15397,2147500690,2147876516,2147859474,2147790582,2147309385,2147550656,2147883702,2148249060,3363,7,12,11976
1341592801,5803,194.2500000000000000,18.8218002319335940,36.5849990844726560,236.6125946044922000,142.8394927978515600,18.8223400115966800,31.0689697265625000,50,115,100,82,66,15398,2147502418,2147886061,2147873508,2147791213,2147314898,2147548086,2147888612,2148250441,387,7,12,4366
1341592856,5804,189.6799926757812500,18.9519004821777340,36.5880012512207000,237.6902008056640600,138.2536926269531200,18.9622402191162100,30.9573001861572270,50,112,101,82,65,15396,2147503652,2147908827,2147930889,2147789860,2147318171,2147572763,2147925467,2148250953,562,7,12,33688
1341592911,5802,185.2100067138672000,19.0457000732421880,36.5918998718261700,240.4183044433593800,135.4237976074218800,19.0485992431640620,30.7925300598144530,50,112,99,81,66,15396,2147511140,2147950774,2148031524,2147793764,2147315858,2147599579,2147984347,2148254445,322,7,12,58749
1341592966,5804,180.8099975585937500,19.0713005065917970,36.5853996276855500,242.9638977050781200,134.7545928955078000,19.0690193176269530,30.6662902832031250,50,114,101,82,65,15398,2147521325,2148019812,2148200146,2147790491,2147319990,2147642596,2148082669,2148260964,249,7,13,15414
1341593021,5804,176.4499969482422000,19.1515007019042970,36.5926017761230500,244.8831939697265600,132.0308990478515600,19.1521606445312500,30.5429592132568360,51,113,101,81,65,15399,2147536640,2148101860,2148408283,2147792219,2147329115,2147695945,2148207158,2148265051,152,7,12,34276
1341593096,5805,170.9700012207031200,19.2297992706298830,36.5998001098632800,247.1497955322265600,129.6365966796875000,19.2252597808837900,30.4096508026123050,51,115,102,82,65,15397,2147556278,2148179062,2148587867,2147793252,2147338139,2147753179,2148317723,2148272960,149,7,12,32809
1341593151,5804,167.3699951171875000,19.2861995697021500,36.6026992797851560,248.3231964111328000,127.7069015502929700,19.2841892242431640,30.3319492340087900,57,119,101,81,64,15383,2147564626,2148209764,2148647158,2147793069,2147348946,2147773065,2148356278,2148275584,3332,7,12,20640
1341593218,5803,163.1600036621093800,19.3173007965087900,36.6024017333984400,250.8908996582031200,126.7498016357421900,19.3134193420410160,30.2057590484619140,58,124,102,83,64,15379,2147575433,2148231451,2148679579,2147793792,2147355126,2147787227,2148377142,2148274130,3527,7,12,28423
1341593285,5804,158.9900054931640600,19.3344993591308600,36.5993003845214840,253.0229034423828000,126.1605987548828100,19.3314094543457030,30.1049499511718750,61,125,102,81,63,15378,2147584585,2148269074,2148757476,2147794468,2147358665,2147819483,2148414217,2148277129,3326,7,12,32470
1341593352,5806,154.8899993896484400,19.3425006866455080,36.5984001159668000,254.4362030029297000,125.8368988037109400,19.3412990570068360,30.0394706726074220,63,126,102,82,64,15372,2147581741,2148216832,2148595904,2147791588,2147354084,2147779684,2148323602,2148273289,30,8,12,38734
1341593430,5803,150.5200042724609400,19.3437004089355470,36.5928993225097660,255.1665039062500000,125.8358001708984400,19.3413295745849600,30.0079002380371100,65,124,105,83,64,15369,2147597174,2148257197,2148679168,2147792146,2147364379,2147806866,2148370048,2148274496,162,7,12,48263
1341593509,5805,146.8000030517578000,19.3516998291015620,36.5924987792968750,255.5034027099609400,125.4570007324218800,19.3528995513916000,29.9884796142578120,68,128,102,84,64,15369,2147626898,2148371428,2148921673,2147795913,2147381248,2147877293,2148503771,2148282944,191,7,12,57445
1341593600,5804,142.4199981689453000,19.3735008239746100,36.5926017761230500,255.8385925292968800,124.8692016601562500,19.3708591461181640,29.9664993286132800,77,130,104,82,64,15352,2147653147,2148447853,2149064640,2147792448,2147395739,2147925174,2148571830,2148290048,652,7,12,34073
1341593679,5804,138.6100006103515600,19.3801002502441400,36.5924987792968750,255.9116973876953000,124.6455993652343800,19.3776798248291000,29.9603595733642580,78,131,103,82,64,15353,2147687067,2148544960,2149242112,2147797805,2147403126,2147974153,2148665307,2148297755,636,7,12,40168
1341593760,5805,134.6900024414062500,19.3831996917724600,36.5923995971679700,256.1131896972656000,124.4947967529296900,19.3822898864746100,29.9496402740478500,80,134,102,84,63,15351,2147753664,2148743552,2149641581,2147799725,2147430994,2148087195,2148875309,2148309787,452,7,12,26297
1341593851,5804,130.1199951171875000,19.3974990844726560,36.5920982360839840,256.3281860351562500,124.0434036254882800,19.3960800170898440,29.9347705841064450,91,135,104,83,64,15344,2147827035,2148951643,2150013494,2147807122,2147468955,2148189677,2149054253,2148324297,496,7,12,5006
1341593918,5803,126.6699981689453100,19.4044990539550780,36.5901985168457000,256.5224914550781000,123.8423995971679700,19.4022197723388670,29.9237709045410160,94,139,105,83,63,15329,2147949878,2149330752,2150771849,2147814793,2147515858,2148387730,2149428352,2148348882,580,7,12,13304
1341593997,5806,122.5699996948242200,19.4118995666503900,36.5881004333496100,256.8757934570312500,123.5914993286132800,19.4098796844482420,29.9053993225097660,102,141,103,83,63,15323,2148161206,2149952082,2151985133,2147828946,2147610889,2148702363,2150007323,2148389805,626,7,12,47229
1341594078,5805,118.3000030517578100,19.4284000396728500,36.5870018005371100,257.7067871093750000,123.0637969970703100,19.4260101318359380,29.8632698059082030,108,142,105,82,64,15322,2148414299,2150647058,2153272594,2147851318,2147710189,2149019081,2150595209,2148436333,703,7,12,16584
1341594157,5805,114.1100006103515600,19.4167003631591800,36.5768013000488300,258.3168029785156000,123.3702011108398400,19.4166507720947270,29.8411903381347660,119,136,104,84,65,15321,2148659611,2151232082,2154232795,2147875913,2147803894,2149241353,2150959798,2148469284,758,7,12,10971
1341594224,5803,110.5800018310546900,19.4286003112792970,36.5784988403320300,258.9548034667969000,123.0149993896484400,19.4274997711181640,29.8096809387207030,124,134,103,83,64,15310,2149043382,2152198244,2155915428,2147908233,2147947766,2149636461,2151648603,2148524845,736,7,13,1632
1341594303,5801,106.5699996948242200,19.4477005004882800,36.5764999389648440,260.0781860351562500,122.4292984008789000,19.4453907012939450,29.7545890808105470,130,133,105,84,65,15301,2149640932,2153610678,2158204699,2147959579,2148155940,2150190171,2152575241,2148607753,667,7,13,17075
1341594384,5801,102.5199966430664000,19.5230007171630860,36.5890998840332000,261.0614929199219000,120.0758972167968800,19.5172996520996100,29.6831607818603500,144,138,105,84,66,15284,2150299428,2155006354,2160177618,2148013046,2148370660,2150667803,2153262674,2148677988,591,7,13,63421
1341594463,5804,98.5999984741211000,19.5652999877929700,36.5909004211425800,263.3638000488281000,118.5584030151367200,19.5636806488037100,29.5678997039794920,152,140,105,85,66,15250,2151484251,2157631186,2164043126,2148117705,2148744054,2151523730,2154634898,2148814098,640,7,13,11613
1341594518,5805,95.8700027465820300,19.6138992309570300,36.5924987792968750,265.9081115722656000,116.9093017578125000,19.6140804290771500,29.4419708251953120,130,138,104,85,64,15258,2152534418,2159821842,2167121398,2148207341,2149088100,2152252662,2155769709,2148928941,745,7,13,17159
1341594573,5803,93.2500000000000000,19.6453990936279300,36.5917015075683600,267.2218017578125000,115.9878997802734400,19.6422500610351560,29.3764896392822270,120,138,104,85,65,15261,2153657380,2162016393,2169976877,2148309156,2149458944,2153028315,2156881316,2149049005,807,7,13,1565
1341594628,5804,90.6900024414062500,19.6728992462158200,36.5923004150390600,268.2437133789062500,115.1053009033203100,19.6692295074462900,29.3237495422363280,116,135,104,85,65,15257,2154858413,2164294217,2172852946,2148426880,2149882733,2153899922,2158114678,2149184429,633,7,13,47273
1341594685,5806,88.1200027465820300,19.7084999084472660,36.5941009521484400,269.1567993164062500,114.1641006469726600,19.6980094909667970,29.2750797271728500,111,134,104,85,66,15259,2156295542,2166916964,2176091712,2148568365,2150388946,2154889664,2159447497,2149333805,379,8,13,32388
1341594740,5804,85.6900024414062500,19.7682991027832030,36.5998992919921900,269.3988952636719000,112.4487991333007800,19.7504596710205080,29.2433700561523440,107,134,105,84,64,15248,2157447003,2168828662,2178212772,2148675428,2150804242,2155660443,2160331968,2149441764,395,7,13,46850
1341594795,5804,83.4199981689453100,19.7798995971679700,36.6012992858886700,270.1543884277344000,111.5727996826171900,19.7772502899169920,29.2018508911132800,105,133,107,85,65,15244,2159483913,2172466057,2182799232,2148892196,2151548854,2157139318,2162273051,2149657883,364,7,13,63517
1341594850,5805,81.2900009155273400,19.8234996795654300,36.6012001037597660,270.6083984375000000,110.2189025878906200,19.8186607360839840,29.1665191650390620,103,135,105,83,63,15232,2160898550,2174491611,2184649984,2149019958,2152070189,2158040356,2163211337,2149778916,206,7,12,43252
1341594905,5800,79.2900009155273400,19.8560009002685550,36.5990982055664060,271.7941894531250000,109.1242980957031200,19.8521404266357420,29.1054096221923830,99,138,105,86,64,15229,2162852425,2177497682,2187907520,2149222765,2152788580,2159321142,2164706834,2149956269,3436,7,13,42339
1341594960,5804,77.4700012207031200,19.9004001617431640,36.5979995727539060,272.6488952636719000,107.8452987670898400,19.8912696838378900,29.0552196502685550,96,136,106,83,63,15232,2164903542,2180714203,2191502665,2149440118,2153582555,2160713682,2166315785,2150134820,3351,7,13,33558
1341595035,5804,74.7200012207031200,19.9902000427246100,36.6002998352050800,273.6632080078125000,104.7469024658203100,19.9860801696777340,28.9760398864746100,88,141,106,86,63,15225,2167842998,2184478528,2194742902,2149733165,2154898752,2162856064,2168483684,2150391817,3461,7,13,9191
1341595090,5801,72.2600021362304700,20.0298995971679700,36.6018981933593750,274.9193115234375000,103.4867019653320300,20.0246505737304700,28.9107093811035160,86,139,108,84,62,15213,2171644854,2190024109,2200681060,2150186523,2156634011,2165703104,2171667154,2150744612,3519,7,13,14377
1341595145,5803,69.9199981689453100,20.1177005767822270,36.6060981750488300,275.8255920410156000,100.5439987182617200,20.1147403717041000,28.8381900787353500,83,139,107,87,61,15208,2174921563,2194349440,2204966665,2150577938,2158120804,2167986541,2173889508,2151012470,3325,7,12,40101
1341595200,5801,67.7300033569336000,20.1641998291015620,36.6092987060546900,276.8707885742187500,98.9954833984375000,20.1621608734130860,28.7780303955078120,81,139,109,85,64,15209,2177801252,2197629961,2207648064,2150919597,2159569444,2170034185,2175738441,2151245668,2699,7,13,22577
1341595255,5804,65.6800003051757800,20.2618007659912100,36.6132011413574200,277.4395141601562500,96.0780868530273400,20.2515106201171880,28.7194194793701170,81,140,107,87,62,15208,2182411529,2203552283,2213535744,2151513746,2161800539,2173393746,2179106011,2151662116,2484,7,13,13353
1341595310,5804,63.8699989318847660,20.3120002746582030,36.6156997680664060,278.3671875000000000,94.2537536621093800,20.3073997497558600,28.6608009338378900,76,140,106,85,63,15207,2189095981,2212560210,2223051913,2152331949,2165045632,2178472347,2184584045,2152309595,2215,7,13,21358
1341595388,5802,61.2299995422363300,20.5069007873535160,36.6202011108398440,279.4101867675781000,87.9004669189453100,20.5021305084228500,28.5412693023681640,74,139,108,87,59,15203,2200592978,2227302134,2238271588,2153844891,2170811172,2186978605,2193004123,2153352182,1707,7,13,3657
1341595443,5804,59.0400009155273440,20.6063003540039060,36.6245002746582000,280.0067138671875000,82.9057998657226600,20.6553192138671880,28.4563407897949220,71,139,107,89,60,15197,2206098825,2232609545,2242079789,2154493668,2174805833,2192119305,2197253321,2153903808,1398,7,13,24976
1341595498,5804,56.8499984741210940,20.7984008789062500,36.6184005737304700,281.0802001953125000,78.0094604492187500,20.8055896759033200,28.3547096252441400,70,140,110,88,64,15180,2214420955,2242204608,2251514733,2155788681,2179312246,2197691209,2201781933,2154572781,1231,7,12,21998
1341595553,5802,54.8800010681152340,20.9204006195068360,36.6156997680664060,282.1325073242187500,74.5723114013671900,20.9111309051513670,28.2721691131591800,67,143,108,87,59,15189,2217801078,2244312996,2252118326,2156428480,2182543058,2201283245,2204161216,2154894244,1113,7,13,28725
1341595695,5805,50.9700012207031250,21.1611995697021500,36.6141014099121100,281.4659118652344000,66.9443664550781200,21.1455097198486330,28.2032604217529300,65,143,108,89,58,15182,2230537746,2257036818,2263650624,2158869586,2192209097,2212742089,2213265764,2156313682,941,8,13,54782
1341595751,5803,49.4000015258789060,21.2415008544921880,36.6161994934082000,281.1701049804687500,64.8599929809570300,21.2096004486084000,28.1887207031250000,64,142,110,87,63,15194,2237177389,2263697142,2270081298,2160550162,2197265380,2218467510,2217575113,2157005001,869,8,12,62450
1341595796,5803,47.7400016784668000,21.3372001647949220,36.6068992614746100,280.6843872070312500,60.7432594299316400,21.3362293243408200,28.1563892364501950,62,143,109,88,61,15192,2244241974,2270479424,2275902720,2161669833,2203350390,2225442752,2223121865,2157791670,1037,6,13,1703
1341595853,5802,45.8699989318847660,21.4095993041992200,36.6035003662109400,280.3565979003906000,57.5633811950683600,21.4340896606445300,28.1295299530029300,61,141,109,86,59,15182,2259670198,2287580022,2293381659,2164829037,2214811108,2239081673,2234572196,2159495835,1124,7,13,54956
1341595934,5803,43.7999992370605500,21.7164001464843750,36.5839996337890600,279.3894958496094000,49.3398399353027340,21.6873798370361330,28.0652294158935550,61,141,111,86,58,15180,2279565833,2309174198,2315183204,2169186395,2230659401,2257679058,2250530358,2161793590,1215,8,13,5583
1341596061,5800,41.5900001525878900,21.8925991058349600,36.5597000122070300,278.9598999023437500,42.7569389343261700,21.8903598785400400,28.0008201599121100,60,150,107,87,63,15180,2296221001,2324898349,2329522386,2172849408,2246398701,2274697984,2263856018,2163913929,2011,8,12,8385
1341596118,5804,39.8800010681152340,22.3358993530273440,36.5317001342773440,276.5321044921875000,29.5640907287597660,22.2977695465087900,27.9318199157714840,58,145,108,88,53,15177,2308317622,2338062528,2343358299,2177060717,2254264658,2282458916,2269006610,2164816064,3357,7,12,4278
1341596247,5805,37.8400001525878900,22.6229000091552730,36.5192985534668000,273.7515869140625000,19.9684104919433600,22.5946502685546880,27.9215202331542970,59,143,107,85,58,15188,2308355712,2335604928,2339823881,2178444205,2264415954,2292747858,2276468114,2166472886,647,7,12,57453
1341596459,5804,35.9199981689453100,22.7922000885009770,36.5084991455078100,270.4566955566406000,13.2306098937988280,22.8034000396728500,27.9671192169189450,57,137,107,86,61,15194,2321716224,2348421860,2353206765,2183827501,2279552182,2306843803,2285365897,2168107081,505,7,12,28864
1341596540,5805,33.8800010681152340,22.8903999328613280,36.5004005432128900,269.2320861816406000,9.8793172836303710,22.9073200225830080,27.9740295410156250,56,137,107,86,60,15193,2331862720,2356877888,2361011474,2188216694,2290915794,2318151314,2294156251,2170102701,901,8,13,26037
1341596621,5803,31.7099990844726560,23.0450000762939450,36.4860000610351560,267.8994140625000000,5.2502899169921875,23.0509605407714840,27.9700508117675780,56,139,107,86,53,15199,2344410523,2368591213,2373303149,2194749915,2307874020,2334900653,2307621202,2173130889,348,8,13,51360
1341596701,5804,29.4699993133544920,23.2651004791259770,36.4592018127441400,265.8226013183594000,-1.8058600425720215,23.2701606750488280,27.9660396575927730,55,137,107,85,61,15199,2359140800,2381843766,2386542390,2202409197,2328050733,2354237001,2321952704,2176106998,97,8,12,14315